• In Portugal
  • List of Countries
  • For 7 days
  • Water Temperature
  • Satellite Maps
  • Weather Map
  • Weather Widgets
  • user-avatar
    Login

    Hourly Weather Saida

    Today, 22 October, Monday

    Time Temperature Precipitation Wind Pressure Humidity
    00:00 +24°C° 0 mm 1 mps 761 mmHg 78%
    01:00 +24°C° 0 mm 1 mps 761 mmHg 76%
    02:00 +24°C° 0 mm 1 mps 761 mmHg 74%
    03:00 +24°C° 0 mm 1 mps 761 mmHg 72%
    04:00 +24°C° 0 mm 1 mps 761 mmHg 70%
    05:00 +24°C° 0 mm 1 mps 761 mmHg 68%
    06:00 +25°C° 0 mm 1 mps 761 mmHg 60%
    07:00 +26°C° 0 mm 1 mps 761 mmHg 53%
    08:00 +28°C° 0 mm 2 mps 761 mmHg 45%
    09:00 +29°C° 0 mm 2 mps 761 mmHg 40%
    10:00 +31°C° 0 mm 2 mps 761 mmHg 35%
    11:00 +32°C° 0 mm 2 mps 761 mmHg 30%
    12:00 +32°C° 0 mm 2 mps 761 mmHg 29%
    13:00 +34°C° 0 mm 3 mps 760 mmHg 28%
    14:00 +34°C° 0 mm 3 mps 760 mmHg 27%
    15:00 +33°C° 0 mm 4 mps 760 mmHg 30%
    16:00 +32°C° 0 mm 4 mps 760 mmHg 33%
    17:00 +30°C° 0 mm 4 mps 759 mmHg 36%
    18:00 +30°C° 0 mm 4 mps 759 mmHg 36%
    19:00 +30°C° 0 mm 4 mps 759 mmHg 36%
    20:00 +29°C° 0 mm 4 mps 759 mmHg 36%
    21:00 +29°C° 0 mm 4 mps 759 mmHg 37%
    22:00 +29°C° 0 mm 3 mps 759 mmHg 38%
    23:00 +28°C° 0 mm 3 mps 759 mmHg 38%

    Tomorrow, 23 October, Tuesday

    Time Temperature Precipitation Wind Pressure Humidity
    00:00 +28°C° 0.2 mm 3 mps 759 mmHg 42%
    01:00 +27°C° 0.2 mm 4 mps 759 mmHg 45%
    02:00 +27°C° 0.2 mm 4 mps 759 mmHg 49%
    03:00 +27°C° 0.3 mm 4 mps 759 mmHg 51%
    04:00 +26°C° 0.3 mm 4 mps 758 mmHg 54%
    05:00 +26°C° 0.3 mm 3 mps 758 mmHg 56%
    06:00 +27°C° 0.3 mm 3 mps 759 mmHg 52%
    07:00 +28°C° 0.3 mm 3 mps 759 mmHg 49%
    08:00 +29°C° 0.3 mm 3 mps 759 mmHg 45%
    09:00 +31°C° 0.1 mm 3 mps 759 mmHg 41%
    10:00 +33°C° 0.1 mm 4 mps 759 mmHg 36%
    11:00 +34°C° 0.1 mm 4 mps 759 mmHg 32%
    12:00 +34°C° 0 mm 4 mps 758 mmHg 32%
    13:00 +34°C° 0 mm 3 mps 758 mmHg 31%
    14:00 +34°C° 0 mm 3 mps 757 mmHg 31%
    15:00 +33°C° 0 mm 3 mps 757 mmHg 36%
    16:00 +31°C° 0 mm 2 mps 757 mmHg 41%
    17:00 +30°C° 0 mm 1 mps 757 mmHg 46%
    18:00 +29°C° 0 mm 1 mps 757 mmHg 48%
    19:00 +29°C° 0 mm 1 mps 758 mmHg 50%
    20:00 +28°C° 0 mm 1 mps 758 mmHg 52%
    21:00 +28°C° 0 mm 2 mps 758 mmHg 51%
    22:00 +28°C° 0 mm 2 mps 758 mmHg 51%
    23:00 +27°C° 0 mm 3 mps 758 mmHg 50%

    Day after tomorrow, 24 October, Wednesday

    Time Temperature Precipitation Wind Pressure Humidity
    00:00 +27°C° 0 mm 3 mps 758 mmHg 48%
    01:00 +27°C° 0 mm 3 mps 757 mmHg 46%
    02:00 +27°C° 0 mm 3 mps 757 mmHg 44%
    03:00 +27°C° 0 mm 3 mps 757 mmHg 44%
    04:00 +27°C° 0 mm 3 mps 757 mmHg 45%
    05:00 +26°C° 0 mm 2 mps 756 mmHg 45%
    06:00 +27°C° 0 mm 3 mps 757 mmHg 43%
    07:00 +28°C° 0 mm 3 mps 757 mmHg 41%
    08:00 +29°C° 0 mm 4 mps 757 mmHg 38%
    09:00 +30°C° 0 mm 4 mps 757 mmHg 36%
    10:00 +32°C° 0 mm 4 mps 757 mmHg 34%
    11:00 +32°C° 0 mm 4 mps 757 mmHg 32%
    12:00 +32°C° 0 mm 4 mps 757 mmHg 33%
    13:00 +33°C° 0 mm 4 mps 756 mmHg 33%
    14:00 +33°C° 0 mm 4 mps 756 mmHg 33%
    15:00 +31°C° 0 mm 3 mps 756 mmHg 38%
    16:00 +30°C° 0 mm 2 mps 755 mmHg 43%
    17:00 +29°C° 0 mm 1 mps 755 mmHg 47%
    18:00 +28°C° 0 mm 1 mps 755 mmHg 47%
    19:00 +28°C° 0 mm 1 mps 756 mmHg 47%
    20:00 +28°C° 0 mm 1 mps 756 mmHg 46%
    21:00 +27°C° 0 mm 1 mps 756 mmHg 44%
    22:00 +27°C° 0 mm 2 mps 756 mmHg 42%
    23:00 +27°C° 0 mm 2 mps 755 mmHg 40%

    25 October, Thursday

    Time Temperature Precipitation Wind Pressure Humidity
    00:00 +27°C° 0 mm 3 mps 755 mmHg 40%
    01:00 +26°C° 0 mm 3 mps 755 mmHg 39%
    02:00 +26°C° 0 mm 4 mps 755 mmHg 39%
    03:00 +26°C° 0.1 mm 4 mps 754 mmHg 40%
    04:00 +26°C° 0.1 mm 4 mps 754 mmHg 41%
    05:00 +26°C° 0.1 mm 4 mps 754 mmHg 43%
    06:00 +26°C° 0.5 mm 4 mps 754 mmHg 44%
    07:00 +27°C° 0.5 mm 4 mps 754 mmHg 46%
    08:00 +27°C° 0.5 mm 4 mps 754 mmHg 47%
    09:00 +27°C° 1.1 mm 5 mps 754 mmHg 49%
    10:00 +27°C° 1.1 mm 5 mps 754 mmHg 51%
    11:00 +27°C° 1.1 mm 5 mps 754 mmHg 53%
    12:00 +27°C° 0.5 mm 6 mps 753 mmHg 55%
    13:00 +28°C° 0.5 mm 7 mps 753 mmHg 58%
    14:00 +28°C° 0.5 mm 8 mps 752 mmHg 60%
    15:00 +27°C° 0.7 mm 8 mps 753 mmHg 66%
    16:00 +26°C° 0.7 mm 8 mps 753 mmHg 73%
    17:00 +23°C° 0.7 mm 8 mps 753 mmHg 79%
    18:00 +23°C° 1.1 mm 8 mps 754 mmHg 81%
    19:00 +23°C° 1.1 mm 8 mps 754 mmHg 82%
    20:00 +22°C° 1.1 mm 8 mps 755 mmHg 83%
    21:00 +22°C° 0.9 mm 8 mps 755 mmHg 83%
    22:00 +22°C° 0.9 mm 8 mps 755 mmHg 83%
    23:00 +22°C° 0.9 mm 7 mps 755 mmHg 83%

    26 October, Friday

    Time Temperature Precipitation Wind Pressure Humidity
    00:00 +22°C° 0.2 mm 8 mps 756 mmHg 80%
    01:00 +22°C° 0.2 mm 8 mps 756 mmHg 78%
    02:00 +22°C° 0.2 mm 8 mps 756 mmHg 76%
    03:00 +21°C° 0.1 mm 8 mps 756 mmHg 77%
    04:00 +21°C° 0.1 mm 8 mps 756 mmHg 77%
    05:00 +19°C° 0.1 mm 9 mps 757 mmHg 78%
    06:00 +20°C° 0.1 mm 8 mps 757 mmHg 75%
    07:00 +20°C° 0.1 mm 8 mps 758 mmHg 72%
    08:00 +20°C° 0.1 mm 7 mps 759 mmHg 69%
    09:00 +20°C° 0.2 mm 7 mps 759 mmHg 71%
    10:00 +21°C° 0.2 mm 6 mps 760 mmHg 73%
    11:00 +21°C° 0.2 mm 6 mps 760 mmHg 75%
    12:00 +21°C° 0.1 mm 6 mps 761 mmHg 72%
    13:00 +21°C° 0.1 mm 6 mps 761 mmHg 69%
    14:00 +21°C° 0.1 mm 6 mps 761 mmHg 66%
    15:00 +20°C° 0 mm 5 mps 762 mmHg 65%
    16:00 +20°C° 0 mm 4 mps 762 mmHg 64%
    17:00 +19°C° 0 mm 4 mps 763 mmHg 62%
    18:00 +19°C° 0 mm 4 mps 763 mmHg 62%
    19:00 +18°C° 0 mm 4 mps 763 mmHg 61%
    20:00 +18°C° 0 mm 4 mps 764 mmHg 60%
    21:00 +18°C° 0 mm 3 mps 764 mmHg 59%
    22:00 +18°C° 0 mm 3 mps 765 mmHg 58%
    23:00 +18°C° 0 mm 3 mps 765 mmHg 56%

    27 October, Saturday

    Time Temperature Precipitation Wind Pressure Humidity
    00:00 +17°C° 0 mm 3 mps 765 mmHg 56%
    01:00 +17°C° 0 mm 4 mps 765 mmHg 55%
    02:00 +17°C° 0 mm 4 mps 765 mmHg 54%
    03:00 +17°C° 0 mm 4 mps 765 mmHg 55%
    04:00 +17°C° 0 mm 4 mps 765 mmHg 56%
    05:00 +17°C° 0 mm 4 mps 765 mmHg 57%
    06:00 +18°C° 0 mm 3 mps 766 mmHg 54%
    07:00 +19°C° 0 mm 3 mps 766 mmHg 52%
    08:00 +20°C° 0 mm 3 mps 766 mmHg 50%
    09:00 +22°C° 0 mm 3 mps 766 mmHg 44%
    10:00 +24°C° 0 mm 2 mps 766 mmHg 38%
    11:00 +25°C° 0 mm 2 mps 766 mmHg 32%
    12:00 +26°C° 0 mm 3 mps 766 mmHg 30%
    13:00 +26°C° 0 mm 3 mps 765 mmHg 27%
    14:00 +26°C° 0 mm 3 mps 765 mmHg 25%
    15:00 +26°C° 0 mm 4 mps 765 mmHg 27%
    16:00 +25°C° 0 mm 4 mps 765 mmHg 29%
    17:00 +23°C° 0 mm 5 mps 765 mmHg 31%
    18:00 +23°C° 0 mm 4 mps 765 mmHg 30%
    19:00 +22°C° 0 mm 4 mps 765 mmHg 29%
    20:00 +22°C° 0 mm 3 mps 765 mmHg 28%
    21:00 +21°C° 0 mm 3 mps 765 mmHg 27%
    22:00 +21°C° 0 mm 3 mps 765 mmHg 26%
    23:00 +21°C° 0 mm 3 mps 765 mmHg 25%

    28 October, Sunday

    Time Temperature Precipitation Wind Pressure Humidity
    00:00 +21°C° 0 mm 3 mps 764 mmHg 27%
    01:00 +21°C° 0 mm 3 mps 764 mmHg 28%
    02:00 +21°C° 0 mm 3 mps 764 mmHg 29%
    03:00 +21°C° 0 mm 3 mps 764 mmHg 31%
    04:00 +21°C° 0 mm 3 mps 764 mmHg 33%
    05:00 +20°C° 0 mm 3 mps 764 mmHg 36%
    06:00 +22°C° 0 mm 4 mps 764 mmHg 35%
    07:00 +23°C° 0 mm 4 mps 765 mmHg 34%
    08:00 +25°C° 0 mm 4 mps 765 mmHg 33%
    09:00 +26°C° 0 mm 4 mps 765 mmHg 32%
    10:00 +28°C° 0 mm 4 mps 764 mmHg 30%
    11:00 +29°C° 0 mm 4 mps 764 mmHg 29%
    12:00 +29°C° 0 mm 4 mps 764 mmHg 29%
    13:00 +30°C° 0 mm 4 mps 763 mmHg 29%
    14:00 +30°C° 0 mm 5 mps 763 mmHg 28%
    15:00 +29°C° 0 mm 4 mps 763 mmHg 30%
    16:00 +28°C° 0 mm 4 mps 763 mmHg 31%
    17:00 +27°C° 0 mm 4 mps 763 mmHg 33%
    18:00 +27°C° 0 mm 4 mps 763 mmHg 31%
    19:00 +26°C° 0 mm 4 mps 763 mmHg 30%
    20:00 +26°C° 0 mm 4 mps 763 mmHg 29%
    21:00 +25°C° 0 mm 3 mps 763 mmHg 30%
    22:00 +25°C° 0 mm 3 mps 763 mmHg 31%
    23:00 +25°C° 0 mm 3 mps 763 mmHg 32%
    Show more